Notices

What's New in latest Release from April 7th, 2021:

- Updated Glossary, including Speed of Maximum Gust, and Total Hourly Precipitation

- Updated national and regional climate services offices contacts and prices information

- Addition of station inventory lists for 1981-2010, 1971-2000, and 1961-1990 Normals.

If you haven't already, please take our survey and provide feedback about our website: https://eccc.sondage-survey.ca/f/LanguageSelection.aspx?s=442ca660-fcf1-47c0-95a9-59707d6fd709

Hourly Data Report for March 03, 2021

MIRAMICHI RCS
NEW BRUNSWICK
Current Station Operator: ECCC - MSC

47°00'34.000" N
65°27'54.000" W
33.00 m
8100989
71744
ACQ

Download Data

Hourly Data (March 2021)
Hourly Data Report for March 3, 2021
TIME
LST
Temp Definition
°C
Dew Point Definition
°C
Rel Hum Definition
%
Precip. Amount Definition
mm

Wind Dir Definition
10's deg

Wind Spd Definition
km/h
Visibility Definition
km
Stn Press Definition
kPa
Hmdx Definition


Wind Chill Definition


Weather Definition


00:00 -12.4 -17.9 63 LegendMM 28 27   98.64   -22 LegendNANA
01:00 -12.4 -17.9 64 LegendMM 28 28   98.75   -22 LegendNANA
02:00 -12.8 -18.3 63 LegendMM 27 20   98.81   -21 LegendNANA
03:00 -13.1 -18.5 63 LegendMM 27 33   98.83   -24 LegendNANA
04:00 -13.3 -19.1 62 LegendMM 27 15   98.84   -21 LegendNANA
05:00 -13.0 -19.0 61 LegendMM 27 15   98.82   -20 LegendNANA
06:00 -12.8 -18.7 61 LegendMM 27 15   98.85   -20 LegendNANA
07:00 -13.0 -18.6 63 LegendMM 26 16   98.86   -21 LegendNANA
08:00 -12.4 -18.4 61 LegendMM 26 16   98.87   -20 LegendNANA
09:00 -10.2 -17.2 57 LegendMM 26 14   98.90   -17 LegendNANA
10:00 -8.0 -16.0 53 LegendMM 27 15   98.91   -14 LegendNANA
11:00 -6.5 -14.8 52 LegendMM 25 20   98.89   -13 LegendNANA
12:00 -4.7 -13.5 50 LegendMM 25 23   98.91   -12 LegendNANA
13:00 -3.3 -11.9 51 LegendMM 26 26   98.86   -10 LegendNANA
14:00 -1.7 -10.5 51 LegendMM 26 26   98.85   -8 LegendNANA
15:00 -1.4 -10.4 50 LegendMM 27 31   98.85   -8 LegendNANA
16:00 -1.1 -10.4 49 LegendMM 27 24   98.92   -7 LegendNANA
17:00 -1.1 -10.3 50 LegendMM 28 28   98.99   -8 LegendNANA
18:00 -1.7 -10.7 50 LegendMM 27 23   99.05   -8 LegendNANA
19:00 -3.4 -11.2 55 LegendMM 25 14   99.15   -8 LegendNANA
20:00 -4.5 -11.6 58 LegendMM 26 13   99.21   -10 LegendNANA
21:00 -4.2 -11.6 56 LegendMM 27 17   99.19   -10 LegendNANA
22:00 -4.8 -12.1 56 LegendMM 28 23   99.15   -12 LegendNANA
23:00 -5.7 -12.4 59 LegendMM 26 20   99.10   -12 LegendNANA

Notes on Data Quality.

Legend

  • E = Estimated
  • M = Missing
  • NA = Not Available*
  • [empty] = Indicates an unobserved value
Date modified: